{"data":{"norad_id":67307,"epoch":"2026-09-19T11:14:00.816864Z","epoch_age_seconds":164496,"freshness":"FRESH","line1":"1 67307U 26002C   26262.46806501  .00010246  00000+0  38123-3 0  9993","line2":"2 67307  43.0080 311.0215 0002964 304.7944  55.2629 15.27587922 40714","mean_motion":15.27587922,"eccentricity":0.0002964,"inclination_deg":43.008,"raan_deg":311.0215,"arg_perigee_deg":304.7944,"mean_anomaly_deg":55.2629,"bstar":0.00038123,"rev_number":4071,"period_min":94.266259850672,"perigee_km":480.99172629634,"apogee_km":485.05902335214,"semimajor_km":6861.1623748242,"source":"CELESTRAK","updated_at":"2026-09-20T09:00:43.502495Z"}}